AWE418 KBUR-KDEN

Flight info

Callsign AWE418
Flight time N/A
Altitude 37000
Route SLAPP2 LAS J146 DICEE BUMMP SSKII4
Aircraft A320/M-SDE3FGHIRWY/LB1

Departure

Time 2026-05-06 21:23
Airport Hollywood Burbank/Bob Hope Airport (KBUR)

Arrival

Time N/A
Airport Denver International Airport (KDEN)
Time Latitude Longitude Altitude Speed Heading
2026-05-06 21:02 34.19673 -118.35061 690 ft 0 kts 181°
2026-05-06 21:13 34.19686 -118.35061 689 ft 3 kts 191°
2026-05-06 21:14 34.19704 -118.35053 686 ft 3 kts 221°
2026-05-06 21:14 34.19715 -118.35036 686 ft 3 kts 263°
2026-05-06 21:14 34.19716 -118.35024 686 ft 1 kts 271°
2026-05-06 21:14 34.19716 -118.35023 686 ft 0 kts 271°
2026-05-06 21:17 34.19717 -118.35063 689 ft 7 kts 271°
2026-05-06 21:17 34.19718 -118.35120 693 ft 9 kts 272°
2026-05-06 21:18 34.19719 -118.35218 696 ft 14 kts 270°
2026-05-06 21:18 34.19720 -118.35349 695 ft 16 kts 273°
2026-05-06 21:18 34.19754 -118.35477 694 ft 16 kts 307°
2026-05-06 21:18 34.19846 -118.35529 695 ft 19 kts 347°
2026-05-06 21:19 34.19990 -118.35568 697 ft 20 kts 347°
2026-05-06 21:19 34.20113 -118.35602 702 ft 15 kts 347°
2026-05-06 21:19 34.20224 -118.35633 714 ft 21 kts 347°
2026-05-06 21:19 34.20351 -118.35669 718 ft 17 kts 347°
2026-05-06 21:20 34.20473 -118.35703 723 ft 25 kts 346°
2026-05-06 21:20 34.20637 -118.35747 731 ft 21 kts 347°
2026-05-06 21:20 34.20755 -118.35779 740 ft 13 kts 347°
2026-05-06 21:20 34.20864 -118.35809 747 ft 21 kts 348°
2026-05-06 21:21 34.20986 -118.35842 757 ft 16 kts 347°
2026-05-06 21:21 34.21115 -118.35881 767 ft 18 kts 343°
2026-05-06 21:21 34.21188 -118.35952 773 ft 11 kts 310°
2026-05-06 21:21 34.21195 -118.36024 773 ft 10 kts 213°
2026-05-06 21:22 34.21117 -118.36015 771 ft 14 kts 167°
2026-05-06 21:22 34.20954 -118.35971 757 ft 52 kts 166°
2026-05-06 21:22 34.20348 -118.35800 719 ft 123 kts 166°
2026-05-06 21:22 34.19383 -118.35528 955 ft 152 kts 169°
2026-05-06 21:23 34.18311 -118.35334 1537 ft 161 kts 191°
2026-05-06 21:23 34.17418 -118.36084 2195 ft 163 kts 241°
2026-05-06 21:23 34.16835 -118.37251 2820 ft 168 kts 228°
2026-05-06 21:23 34.15959 -118.38338 3085 ft 192 kts 224°
2026-05-06 21:24 34.14976 -118.39516 3294 ft 196 kts 234°
2026-05-06 21:24 34.14372 -118.40947 4145 ft 198 kts 257°
2026-05-06 21:24 34.14119 -118.42699 4641 ft 216 kts 271°
2026-05-06 21:24 34.14352 -118.44523 4998 ft 231 kts 296°
2026-05-06 21:25 34.15412 -118.46100 4843 ft 254 kts 330°
2026-05-06 21:25 34.17103 -118.46631 4904 ft 258 kts
2026-05-06 21:25 34.18826 -118.45913 5571 ft 266 kts 28°
2026-05-06 21:25 34.20442 -118.44821 6571 ft 266 kts 29°
2026-05-06 21:26 34.22059 -118.43725 7481 ft 267 kts 30°
2026-05-06 21:26 34.23685 -118.42621 8402 ft 269 kts 30°
2026-05-06 21:26 34.25321 -118.41513 9323 ft 270 kts 28°
2026-05-06 21:26 34.27046 -118.40590 10199 ft 273 kts 22°
2026-05-06 21:27 34.28913 -118.39815 10563 ft 295 kts 19°
2026-05-06 21:27 34.30956 -118.39058 10794 ft 319 kts 18°
2026-05-06 21:27 34.33142 -118.38271 11110 ft 334 kts 18°
2026-05-06 21:27 34.35393 -118.37451 11746 ft 341 kts 18°
2026-05-06 21:28 34.37673 -118.36600 12430 ft 345 kts 19°
2026-05-06 21:28 34.39973 -118.35718 13176 ft 349 kts 19°
2026-05-06 21:28 34.42298 -118.34806 13879 ft 353 kts 19°
2026-05-06 21:28 34.44643 -118.33861 14502 ft 357 kts 21°
2026-05-06 21:29 34.46875 -118.32531 15149 ft 359 kts 32°
2026-05-06 21:29 34.48875 -118.30703 15772 ft 362 kts 39°
2026-05-06 21:29 34.50820 -118.28750 16422 ft 365 kts 39°
2026-05-06 21:29 34.52784 -118.26782 17064 ft 368 kts 39°
2026-05-06 21:30 34.54761 -118.24801 17681 ft 371 kts 39°
2026-05-06 21:30 34.56761 -118.22800 18315 ft 374 kts 39°
2026-05-06 21:30 34.58773 -118.20783 18816 ft 377 kts 39°
2026-05-06 21:30 34.60797 -118.18755 18975 ft 377 kts 39°
2026-05-06 21:31 34.62815 -118.16732 19007 ft 376 kts 39°
2026-05-06 21:31 34.64685 -118.14513 19010 ft 377 kts 49°
2026-05-06 21:31 34.66148 -118.11870 19010 ft 379 kts 60°
2026-05-06 21:31 34.67154 -118.08859 19013 ft 382 kts 71°
2026-05-06 21:32 34.67732 -118.05698 19012 ft 383 kts 75°
2026-05-06 21:32 34.68803 -117.99353 19009 ft 384 kts 75°
2026-05-06 21:32 34.69231 -117.96148 19012 ft 387 kts 82°
2026-05-06 21:33 34.69422 -117.92869 19478 ft 390 kts 83°
2026-05-06 21:33 34.69618 -117.89568 20046 ft 393 kts 82°
2026-05-06 21:33 34.69820 -117.86253 20579 ft 395 kts 82°
2026-05-06 21:33 34.70024 -117.82910 21078 ft 398 kts 82°
2026-05-06 21:34 34.70232 -117.79546 21591 ft 400 kts 82°
2026-05-06 21:34 34.70439 -117.76161 22083 ft 403 kts 82°
2026-05-06 21:34 34.70622 -117.72767 22565 ft 406 kts 83°
2026-05-06 21:34 34.70769 -117.69315 23029 ft 409 kts 84°
2026-05-06 21:35 34.70895 -117.65852 23513 ft 412 kts 84°
2026-05-06 21:35 34.71011 -117.62367 23918 ft 414 kts 84°
2026-05-06 21:35 34.71128 -117.58860 24292 ft 416 kts 84°
2026-05-06 21:35 34.71250 -117.55338 24676 ft 418 kts 84°
2026-05-06 21:36 34.71451 -117.51819 25049 ft 417 kts 78°
2026-05-06 21:36 34.72067 -117.48389 25417 ft 415 kts 70°
2026-05-06 21:36 34.72965 -117.45057 25780 ft 416 kts 69°
2026-05-06 21:36 34.73869 -117.41706 26135 ft 418 kts 69°
2026-05-06 21:37 34.74766 -117.38346 26485 ft 419 kts 69°
2026-05-06 21:37 34.75662 -117.34961 26819 ft 421 kts 69°
2026-05-06 21:37 34.76556 -117.31568 27142 ft 422 kts 69°
2026-05-06 21:37 34.77454 -117.28165 27451 ft 424 kts 69°
2026-05-06 21:38 34.78358 -117.24745 27753 ft 425 kts 69°
2026-05-06 21:38 34.79268 -117.21316 28045 ft 427 kts 69°
2026-05-06 21:38 34.80183 -117.17876 28337 ft 428 kts 69°
2026-05-06 21:38 34.80937 -117.15616 28513 ft 426 kts 61°
2026-05-06 21:39 34.82331 -117.12434 28754 ft 427 kts 59°
2026-05-06 21:39 34.83741 -117.09247 29025 ft 428 kts 59°
2026-05-06 21:39 34.85154 -117.06056 29321 ft 428 kts 59°
2026-05-06 21:39 34.86564 -117.02872 29683 ft 427 kts 59°
2026-05-06 21:40 34.87969 -116.99698 30058 ft 425 kts 59°
2026-05-06 21:40 34.89369 -116.96532 30381 ft 424 kts 59°
2026-05-06 21:40 34.90764 -116.93371 30683 ft 423 kts 59°
2026-05-06 21:40 34.92151 -116.90222 30989 ft 422 kts 59°
2026-05-06 21:41 34.93534 -116.87077 31288 ft 420 kts 59°
2026-05-06 21:41 34.94911 -116.83942 31600 ft 419 kts 59°
2026-05-06 21:41 34.96285 -116.80812 31883 ft 418 kts 59°
2026-05-06 21:41 34.97658 -116.77687 32168 ft 418 kts 59°
2026-05-06 21:42 34.99048 -116.74517 32342 ft 420 kts 59°
2026-05-06 21:42 35.00429 -116.71365 32454 ft 422 kts 59°
2026-05-06 21:42 35.01812 -116.68203 32590 ft 423 kts 59°
2026-05-06 21:42 35.03202 -116.65032 32711 ft 424 kts 59°
2026-05-06 21:43 35.04594 -116.61853 32831 ft 425 kts 59°
2026-05-06 21:43 35.05986 -116.58669 32962 ft 426 kts 59°
2026-05-06 21:43 35.07379 -116.55479 33132 ft 425 kts 59°
2026-05-06 21:43 35.08762 -116.52305 33369 ft 423 kts 59°
2026-05-06 21:44 35.10141 -116.49136 33587 ft 422 kts 59°
2026-05-06 21:44 35.11517 -116.45967 33794 ft 421 kts 59°
2026-05-06 21:44 35.12889 -116.42809 34000 ft 421 kts 59°
2026-05-06 21:44 35.14258 -116.39654 34182 ft 420 kts 59°
2026-05-06 21:45 35.15624 -116.36503 34360 ft 420 kts 59°
2026-05-06 21:45 35.16991 -116.33349 34525 ft 419 kts 59°
2026-05-06 21:45 35.18352 -116.30203 34677 ft 419 kts 59°
2026-05-06 21:45 35.19714 -116.27054 34802 ft 419 kts 59°
2026-05-06 21:46 35.21077 -116.23901 34924 ft 420 kts 59°
2026-05-06 21:46 35.22436 -116.20747 35039 ft 420 kts 59°
2026-05-06 21:46 35.23802 -116.17581 35161 ft 421 kts 59°
2026-05-06 21:46 35.25169 -116.14416 35286 ft 421 kts 59°
2026-05-06 21:47 35.26538 -116.11247 35411 ft 421 kts 59°
2026-05-06 21:47 35.27904 -116.08079 35537 ft 421 kts 59°
2026-05-06 21:47 35.29286 -116.04865 35664 ft 421 kts 60°
2026-05-06 21:47 35.30647 -116.01696 35798 ft 420 kts 60°
2026-05-06 21:48 35.32007 -115.98526 35923 ft 420 kts 60°
2026-05-06 21:48 35.33360 -115.95364 36052 ft 420 kts 60°
2026-05-06 21:48 35.34712 -115.92197 36181 ft 419 kts 60°
2026-05-06 21:48 35.36063 -115.89034 36306 ft 418 kts 60°
2026-05-06 21:49 35.37411 -115.85881 36440 ft 418 kts 60°
2026-05-06 21:49 35.38904 -115.82385 36584 ft 417 kts 60°
2026-05-06 21:49 35.40099 -115.79583 36705 ft 417 kts 60°
2026-05-06 21:49 35.41439 -115.76437 36838 ft 416 kts 60°
2026-05-06 21:50 35.42772 -115.73305 37026 ft 412 kts 60°
2026-05-06 21:50 35.44091 -115.70203 37058 ft 409 kts 60°
2026-05-06 21:50 35.46721 -115.64030 37057 ft 408 kts 60°
2026-05-06 21:51 35.49337 -115.57855 37062 ft 408 kts 60°
2026-05-06 21:51 35.51946 -115.51672 37063 ft 408 kts 60°
2026-05-06 21:52 35.54554 -115.45489 37067 ft 408 kts 60°
2026-05-06 21:52 35.57182 -115.39259 37069 ft 408 kts 60°
2026-05-06 21:53 35.59793 -115.33064 37072 ft 408 kts 60°
2026-05-06 21:53 35.62399 -115.26868 37068 ft 408 kts 60°
2026-05-06 21:54 35.65002 -115.20664 37064 ft 408 kts 60°
2026-05-06 21:54 35.67603 -115.14456 37067 ft 409 kts 60°
2026-05-06 21:55 35.70197 -115.08233 37068 ft 409 kts 60°
2026-05-06 21:55 35.72788 -115.02000 37052 ft 409 kts 60°
2026-05-06 21:56 35.75379 -114.95768 37036 ft 409 kts 60°
2026-05-06 21:56 35.77971 -114.89537 37035 ft 409 kts 60°
2026-05-06 21:57 35.80564 -114.83303 37033 ft 409 kts 60°
2026-05-06 21:57 35.83143 -114.77049 37032 ft 410 kts 60°
2026-05-06 21:58 35.85727 -114.70791 37029 ft 410 kts 60°
2026-05-06 21:58 35.88315 -114.64522 37015 ft 410 kts 60°
2026-05-06 21:59 35.90896 -114.58244 37000 ft 411 kts 60°
2026-05-06 21:59 35.93476 -114.51955 36982 ft 411 kts 60°
2026-05-06 22:00 35.96077 -114.45618 36969 ft 411 kts 60°
2026-05-06 22:00 35.98660 -114.39311 36956 ft 412 kts 60°
2026-05-06 22:01 36.01232 -114.32992 36956 ft 412 kts 60°
2026-05-06 22:01 36.03809 -114.26668 36963 ft 412 kts 60°
2026-05-06 22:02 36.06382 -114.20341 36965 ft 412 kts 60°
2026-05-06 22:02 36.08951 -114.14005 36963 ft 412 kts 60°
2026-05-06 22:03 36.11520 -114.07670 36964 ft 412 kts 60°
2026-05-06 22:03 36.14085 -114.01327 36955 ft 413 kts 60°
2026-05-06 22:04 36.16648 -113.94977 36969 ft 412 kts 60°
2026-05-06 22:04 36.19203 -113.88623 36983 ft 413 kts 60°
2026-05-06 22:05 36.21755 -113.82263 36982 ft 413 kts 60°
2026-05-06 22:05 36.24313 -113.75894 36986 ft 413 kts 60°
2026-05-06 22:06 36.26869 -113.69511 36976 ft 413 kts 60°
2026-05-06 22:06 36.29419 -113.63121 36980 ft 414 kts 60°
2026-05-06 22:07 36.31972 -113.56719 36972 ft 414 kts 60°
2026-05-06 22:07 36.34525 -113.50301 36976 ft 416 kts 60°
2026-05-06 22:08 36.37081 -113.43861 36978 ft 417 kts 60°
2026-05-06 22:08 36.39644 -113.37402 36984 ft 418 kts 60°
2026-05-06 22:09 36.42210 -113.30919 36979 ft 418 kts 60°
2026-05-06 22:09 36.44776 -113.24426 36991 ft 419 kts 60°
2026-05-06 22:10 36.46923 -113.18982 36991 ft 419 kts 60°
2026-05-06 22:10 36.49490 -113.12470 36991 ft 420 kts 60°
2026-05-06 22:11 36.52049 -113.05939 36987 ft 420 kts 60°
2026-05-06 22:11 36.54608 -112.99389 36978 ft 421 kts 60°
2026-05-06 22:12 36.57167 -112.92830 36974 ft 422 kts 60°
2026-05-06 22:12 36.59734 -112.86262 36975 ft 423 kts 60°
2026-05-06 22:13 36.62305 -112.79662 36969 ft 424 kts 61°
2026-05-06 22:13 36.64866 -112.73044 36968 ft 425 kts 61°
2026-05-06 22:14 36.67449 -112.66372 36964 ft 425 kts 61°
2026-05-06 22:14 36.70021 -112.59726 36966 ft 426 kts 61°
2026-05-06 22:15 36.72595 -112.53062 36962 ft 427 kts 61°
2026-05-06 22:15 36.75171 -112.46375 36964 ft 428 kts 61°
2026-05-06 22:16 36.77748 -112.39674 36958 ft 429 kts 61°
2026-05-06 22:16 36.80331 -112.32941 36962 ft 430 kts 61°
2026-05-06 22:17 36.82913 -112.26193 36955 ft 431 kts 61°
2026-05-06 22:17 36.85499 -112.19422 36958 ft 432 kts 61°
2026-05-06 22:18 36.88086 -112.12633 36945 ft 433 kts 61°
2026-05-06 22:18 36.90675 -112.05828 36944 ft 434 kts 61°
2026-05-06 22:19 36.93263 -111.99002 36927 ft 435 kts 61°
2026-05-06 22:19 36.95854 -111.92165 36920 ft 436 kts 62°
2026-05-06 22:20 36.98448 -111.85305 36921 ft 436 kts 62°
2026-05-06 22:20 37.01033 -111.78437 36941 ft 437 kts 62°
2026-05-06 22:21 37.03619 -111.71554 36964 ft 437 kts 62°
2026-05-06 22:21 37.06202 -111.64654 36978 ft 438 kts 62°
2026-05-06 22:22 37.08812 -111.57698 36984 ft 438 kts 62°
2026-05-06 22:22 37.11398 -111.50778 36985 ft 439 kts 62°
2026-05-06 22:23 37.13980 -111.43837 36960 ft 440 kts 62°
2026-05-06 22:23 37.16563 -111.36883 36938 ft 441 kts 62°
2026-05-06 22:24 37.19152 -111.29909 36916 ft 441 kts 62°
2026-05-06 22:24 37.21742 -111.22928 36891 ft 442 kts 62°
2026-05-06 22:25 37.24413 -111.15972 36892 ft 442 kts 60°
2026-05-06 22:25 37.27202 -111.09094 36895 ft 443 kts 60°
2026-05-06 22:26 37.29999 -111.02191 36904 ft 444 kts 60°
2026-05-06 22:26 37.32761 -110.95240 36916 ft 445 kts 60°
2026-05-06 22:27 37.35513 -110.88269 36926 ft 446 kts 60°
2026-05-06 22:27 37.38266 -110.81279 36933 ft 446 kts 60°
2026-05-06 22:28 37.41023 -110.74277 36930 ft 447 kts 60°
2026-05-06 22:28 37.43787 -110.67257 36945 ft 448 kts 60°
2026-05-06 22:29 37.46546 -110.60211 36953 ft 450 kts 61°
2026-05-06 22:29 37.49330 -110.53097 36965 ft 450 kts 61°
2026-05-06 22:30 37.52102 -110.46008 36973 ft 451 kts 61°
2026-05-06 22:30 37.54866 -110.38905 36982 ft 452 kts 61°
2026-05-06 22:31 37.57629 -110.31787 36988 ft 452 kts 61°
2026-05-06 22:31 37.60397 -110.24665 36994 ft 453 kts 61°
2026-05-06 22:32 37.63161 -110.17523 37003 ft 454 kts 61°
2026-05-06 22:32 37.65927 -110.10358 37016 ft 454 kts 61°
2026-05-06 22:33 37.66842 -110.07988 37011 ft 454 kts 61°